TimeMST,TemperatureF,Dew PointF,Humidity,Sea Level PressureIn,VisibilityMPH,Wind Direction,Wind SpeedMPH,Gust SpeedMPH,PrecipitationIn,Events,Conditions,WindDirDegrees,DateUTC
12:15 AM,10.4,-0.4,62,30.36,10.0,Calm,Calm,-,N/A,,Overcast,0,2013-03-01 07:15:00
12:35 AM,10.4,1.4,67,30.36,10.0,Calm,Calm,-,N/A,,Mostly Cloudy,0,2013-03-01 07:35:00
12:55 AM,10.4,6.8,85,30.36,10.0,SW,3.5,-,N/A,,Mostly Cloudy,230,2013-03-01 07:55:00
1:15 AM,14.0,5.0,67,30.36,10.0,South,3.5,-,N/A,,Mostly Cloudy,190,2013-03-01 08:15:00
1:35 AM,12.2,1.4,62,30.37,10.0,Calm,Calm,-,N/A,,Mostly Cloudy,0,2013-03-01 08:35:00
1:55 AM,10.4,3.2,73,30.37,10.0,Calm,Calm,-,N/A,,Mostly Cloudy,0,2013-03-01 08:55:00
3:15 AM,10.4,-0.4,62,30.35,10.0,North,5.8,-,N/A,,Partly Cloudy,360,2013-03-01 10:15:00
3:35 AM,12.2,10.4,92,30.35,10.0,ENE,5.8,-,N/A,,Scattered Clouds,60,2013-03-01 10:35:00
3:55 AM,10.4,-2.2,57,30.35,10.0,North,3.5,-,N/A,,Mostly Cloudy,10,2013-03-01 10:55:00
4:15 AM,12.2,10.4,92,30.36,10.0,Calm,Calm,-,N/A,,Mostly Cloudy,0,2013-03-01 11:15:00
4:35 AM,10.4,-2.2,57,30.37,10.0,NNE,6.9,-,N/A,,Mostly Cloudy,30,2013-03-01 11:35:00
5:15 AM,14.0,8.6,79,30.37,10.0,Calm,Calm,-,N/A,,Overcast,0,2013-03-01 12:15:00
6:15 AM,12.2,1.4,62,30.39,10.0,North,4.6,-,N/A,,Mostly Cloudy,350,2013-03-01 13:15:00
6:35 AM,12.2,3.2,67,30.39,10.0,North,3.5,-,N/A,,Mostly Cloudy,10,2013-03-01 13:35:00
7:15 AM,12.2,3.2,67,30.39,10.0,NNE,3.5,-,N/A,,Mostly Cloudy,30,2013-03-01 14:15:00
7:35 AM,14.0,8.6,79,30.40,10.0,East,3.5,-,N/A,,Overcast,80,2013-03-01 14:35:00
8:15 AM,17.6,3.2,53,30.42,10.0,NNW,4.6,-,N/A,,Overcast,340,2013-03-01 15:15:00
8:35 AM,17.6,10.4,73,30.42,10.0,NE,3.5,-,N/A,,Overcast,50,2013-03-01 15:35:00
8:55 AM,19.4,15.8,86,30.43,10.0,Calm,Calm,-,N/A,,Mostly Cloudy,0,2013-03-01 15:55:00
9:15 AM,21.2,12.2,68,30.43,10.0,NE,8.1,-,N/A,,Mostly Cloudy,50,2013-03-01 16:15:00
9:55 AM,26.6,15.8,64,30.44,10.0,East,4.6,-,N/A,,Overcast,100,2013-03-01 16:55:00
10:35 AM,32.0,21.2,64,30.42,10.0,SW,18.4,23.0,N/A,,Mostly Cloudy,230,2013-03-01 17:35:00
10:55 AM,33.8,21.2,60,30.43,10.0,WSW,15.0,20.7,N/A,,Mostly Cloudy,240,2013-03-01 17:55:00
11:15 AM,32.0,19.4,60,30.43,10.0,SW,17.3,21.9,N/A,,Mostly Cloudy,230,2013-03-01 18:15:00
11:35 AM,33.8,19.4,56,30.43,10.0,SW,17.3,23.0,N/A,,Scattered Clouds,220,2013-03-01 18:35:00
12:15 PM,33.8,19.4,56,30.41,10.0,SSW,18.4,24.2,N/A,,Mostly Cloudy,210,2013-03-01 19:15:00
12:35 PM,35.6,19.4,52,30.42,10.0,West,13.8,23.0,N/A,,Partly Cloudy,270,2013-03-01 19:35:00
12:55 PM,37.4,19.4,48,30.41,10.0,WSW,17.3,23.0,N/A,,Partly Cloudy,250,2013-03-01 19:55:00
1:15 PM,37.4,19.4,48,30.40,10.0,SW,15.0,23.0,N/A,,Partly Cloudy,230,2013-03-01 20:15:00
1:35 PM,37.4,21.2,52,30.40,10.0,WSW,18.4,23.0,N/A,,Scattered Clouds,250,2013-03-01 20:35:00
1:55 PM,37.4,21.2,52,30.40,10.0,SW,16.1,21.9,N/A,,Overcast,230,2013-03-01 20:55:00
2:15 PM,37.4,19.4,48,30.39,10.0,SW,17.3,-,N/A,,Overcast,230,2013-03-01 21:15:00
2:55 PM,35.6,19.4,52,30.38,10.0,WSW,16.1,24.2,N/A,,Clear,240,2013-03-01 21:55:00
3:15 PM,35.6,19.4,52,30.38,10.0,SW,15.0,21.9,N/A,,Clear,230,2013-03-01 22:15:00
3:35 PM,35.6,19.4,52,30.38,10.0,WSW,13.8,23.0,N/A,,Clear,240,2013-03-01 22:35:00
3:55 PM,35.6,19.4,52,30.39,10.0,WSW,12.7,19.6,N/A,,Clear,250,2013-03-01 22:55:00
4:15 PM,35.6,19.4,52,30.39,10.0,WSW,19.6,23.0,N/A,,Clear,240,2013-03-01 23:15:00
4:35 PM,35.6,19.4,52,30.39,10.0,WSW,12.7,21.9,N/A,,Clear,250,2013-03-01 23:35:00
4:55 PM,35.6,19.4,52,30.39,10.0,SW,13.8,20.7,N/A,,Clear,230,2013-03-01 23:55:00
5:15 PM,35.6,19.4,52,30.40,10.0,WSW,10.4,20.7,N/A,,Clear,250,2013-03-02 00:15:00
5:35 PM,35.6,17.6,48,30.40,10.0,WSW,13.8,19.6,N/A,,Clear,250,2013-03-02 00:35:00
5:55 PM,33.8,19.4,56,30.40,10.0,WSW,12.7,18.4,N/A,,Clear,250,2013-03-02 00:55:00
6:15 PM,33.8,19.4,56,30.41,10.0,West,8.1,18.4,N/A,,Clear,270,2013-03-02 01:15:00
6:35 PM,32.0,19.4,60,30.42,10.0,WSW,10.4,16.1,N/A,,Clear,250,2013-03-02 01:35:00
7:15 PM,30.2,19.4,64,30.44,10.0,West,5.8,-,N/A,,Clear,280,2013-03-02 02:15:00
7:35 PM,30.2,19.4,64,30.45,10.0,Calm,Calm,-,N/A,,Clear,0,2013-03-02 02:35:00
7:55 PM,30.2,17.6,60,30.45,10.0,WSW,8.1,-,N/A,,Clear,250,2013-03-02 02:55:00
8:15 PM,30.2,17.6,60,30.46,10.0,Calm,Calm,-,N/A,,Clear,0,2013-03-02 03:15:00
8:55 PM,28.4,19.4,69,30.46,10.0,South,12.7,-,N/A,,Clear,190,2013-03-02 03:55:00
9:35 PM,26.6,15.8,64,30.48,10.0,Calm,Calm,-,N/A,,Clear,0,2013-03-02 04:35:00
9:55 PM,24.8,14.0,64,30.48,10.0,NNW,6.9,-,N/A,,Clear,330,2013-03-02 04:55:00
10:15 PM,24.8,15.8,69,30.48,10.0,ESE,3.5,-,N/A,,Clear,120,2013-03-02 05:15:00
10:35 PM,23.0,19.4,86,30.48,10.0,Calm,Calm,-,N/A,,Clear,0,2013-03-02 05:35:00
11:15 PM,21.2,12.2,68,30.49,10.0,North,4.6,-,N/A,,Clear,350,2013-03-02 06:15:00
11:35 PM,19.4,10.4,68,30.49,10.0,North,6.9,-,N/A,,Clear,350,2013-03-02 06:35:00